Date String (YYYY-MM-DD hh:mm:ss) UTC,Instrument flags,absolute air pressure of the measurement (hPa),sample flow rate (lpm),inlet stack bypass flow (lpm),air temperature of the measurement (°C),ambient temperature measured by the external sensor (°C),aerosol sample conditioner tube jacket temperature (°C),OPC LED temperature (°C),internal box temperature (°C),relative humidity of the measurement (%),span deviation,mass concentration of particles derived from Lorenz-Mie calculation of OPC scattering (μg/m³),mass concentration of particles derived from Lorenz-Mie calculation of OPC scattering (μg/m³),mass concentration of particles derived from Lorenz-Mie calculation of OPC scattering (μg/m³)
DateTimeUTC,F1_M11,P_M11,Q1_M11,Q2_M11,T1_M11,T2_M11,T3_M11,T4_M11,T5_M11,U1_M11,ZSPAN_M11,X2_M11,X0_M11,X1_M11
2024-04-21 07:00:00,SystemResetWarning,0837.7,5.00,000.00,019.2,018.7,000.0,027.8,021.0,023.5,0000.3,0007.45,0009.20,0007.26
2024-04-21 07:01:00,SystemResetWarning,0837.7,5.00,000.00,019.2,018.7,000.0,027.8,021.0,023.6,0000.3,0007.45,0009.39,0007.26
2024-04-21 07:02:00,SystemResetWarning,0837.8,4.99,000.00,019.2,018.7,000.0,027.8,021.0,023.6,-000.1,0007.45,0009.59,0007.26
2024-04-21 07:03:00,SystemResetWarning,0837.8,5.00,000.00,019.3,018.7,000.0,027.8,021.0,023.5,-000.4,0007.46,0009.60,0007.28
2024-04-21 07:04:00,SystemResetWarning,0837.8,5.00,000.00,019.3,018.7,000.0,027.8,021.0,023.6,-000.2,0007.47,0009.61,0007.30
2024-04-21 07:05:00,SystemResetWarning,0837.7,4.99,000.00,019.3,018.7,000.0,027.8,021.0,023.6,-000.0,0007.47,0009.59,0007.31
2024-04-21 07:06:00,SystemResetWarning,0837.8,4.99,000.00,019.3,018.7,000.0,027.8,021.0,023.6,-000.2,0007.47,0009.61,0007.32
2024-04-21 07:07:00,SystemResetWarning,0837.8,5.00,000.00,019.3,018.7,000.0,027.8,021.0,023.5,-000.3,0007.50,0009.68,0007.32
2024-04-21 07:08:00,SystemResetWarning,0837.8,5.00,000.00,019.3,018.7,000.0,027.7,021.0,023.5,-000.4,0007.52,0009.78,0007.33
2024-04-21 07:09:00,SystemResetWarning,0837.7,5.00,000.00,019.3,018.7,000.0,027.8,021.0,023.4,-000.6,0007.55,0010.07,0007.34
2024-04-21 07:10:00,SystemResetWarning,0837.7,5.00,000.00,019.2,018.7,000.0,027.7,021.0,023.4,-001.2,0007.52,0010.00,0007.33
2024-04-21 07:11:00,SystemResetWarning,0837.7,5.01,000.00,019.2,018.7,000.0,027.7,021.0,023.4,-001.1,0007.50,0009.96,0007.32
2024-04-21 07:12:00,SystemResetWarning,0837.8,5.00,000.00,019.2,018.7,000.0,027.7,021.0,023.3,-000.8,0007.49,0009.75,0007.31
2024-04-21 07:13:00,SystemResetWarning,0837.7,5.00,000.00,019.2,018.7,000.0,027.7,021.0,023.3,-000.1,0007.50,0009.57,0007.31
2024-04-21 07:14:00,SystemResetWarning,0837.7,5.00,000.00,019.3,018.7,000.0,027.7,021.0,023.3,0000.2,0007.51,0009.60,0007.30
2024-04-21 07:15:00,SystemResetWarning,0837.7,5.01,000.00,019.3,018.7,000.0,027.7,021.0,023.3,0000.2,0007.50,0009.62,0007.28
2024-04-21 07:16:00,SystemResetWarning,0837.7,5.00,000.00,019.2,018.7,000.0,027.7,021.0,023.3,0000.7,0007.50,0009.63,0007.28
2024-04-21 07:17:00,SystemResetWarning,0837.7,4.99,000.00,019.2,018.7,000.0,027.7,021.0,023.2,0001.0,0007.53,0009.68,0007.30
2024-04-21 07:18:00,SystemResetWarning,0837.7,4.99,000.00,019.2,018.7,000.0,027.7,021.0,023.2,0001.2,0007.52,0009.75,0007.30
2024-04-21 07:19:00,SystemResetWarning,0837.7,5.01,000.00,019.2,018.7,000.0,027.7,021.0,023.2,0001.4,0007.54,0010.17,0007.31
2024-04-21 07:20:00,SystemResetWarning,0837.7,4.99,000.00,019.2,018.7,000.0,027.7,021.0,023.2,0001.3,0007.54,0009.96,0007.32
2024-04-21 07:21:00,SystemResetWarning,0837.7,5.01,000.00,019.2,018.7,000.0,027.7,021.0,023.2,0001.4,0007.57,0009.98,0007.35
2024-04-21 07:22:00,SystemResetWarning,0837.7,5.01,000.00,019.2,018.7,000.0,027.7,021.0,023.2,0001.2,0007.60,0010.02,0007.36
2024-04-21 07:23:00,SystemResetWarning,0837.7,5.00,000.00,019.2,018.7,000.0,027.7,021.0,023.2,0001.2,0007.62,0010.02,0007.38
2024-04-21 07:24:00,SystemResetWarning,0837.7,5.01,000.00,019.2,018.7,000.0,027.7,021.0,023.2,0001.0,0007.61,0009.99,0007.39
2024-04-21 07:25:00,SystemResetWarning,0837.6,5.00,000.00,019.2,018.7,000.0,027.7,021.0,023.2,0001.2,0007.61,0009.98,0007.40
2024-04-21 07:26:00,SystemResetWarning,0837.6,5.00,000.00,019.2,018.7,000.0,027.7,021.0,023.2,0001.4,0007.61,0009.92,0007.41
2024-04-21 07:27:00,SystemResetWarning,0837.6,5.00,000.00,019.2,018.7,000.0,027.7,021.0,023.1,0001.0,0007.60,0009.91,0007.40
2024-04-21 07:28:00,SystemResetWarning,0837.6,5.01,000.00,019.2,018.7,000.0,027.7,021.0,023.1,0000.7,0007.59,0010.78,0007.38
2024-04-21 07:29:00,SystemResetWarning,0837.6,4.99,000.00,019.2,018.7,000.0,027.7,021.0,023.1,0000.7,0007.60,0011.69,0007.36
2024-04-21 07:30:00,SystemResetWarning,0837.6,5.00,000.00,019.2,018.7,000.0,027.7,021.0,023.1,0000.6,0007.56,0011.09,0007.33
2024-04-21 07:31:00,SystemResetWarning,0837.6,5.00,000.00,019.2,018.6,000.0,027.7,021.0,023.5,0000.8,0007.52,0011.01,0007.31
2024-04-21 07:32:00,SystemResetWarning,0837.6,5.00,000.00,019.2,018.6,000.0,027.7,021.0,024.3,0001.0,0007.51,0011.04,0007.29
2024-04-21 07:33:00,SystemResetWarning,0837.6,5.00,000.00,019.2,018.6,000.0,027.7,021.0,023.4,0001.4,0007.47,0011.00,0007.27
2024-04-21 07:34:00,SystemResetWarning,0837.6,5.00,000.00,019.2,018.6,000.0,027.7,021.0,023.3,0001.0,0007.44,0010.99,0007.23
2024-04-21 07:35:00,SystemResetWarning,0837.6,5.01,000.00,019.2,018.6,000.0,027.7,021.0,023.3,0000.8,0007.40,0010.97,0007.20
2024-04-21 07:36:00,SystemResetWarning,0837.6,5.01,000.00,019.2,018.6,000.0,027.7,021.0,023.3,0000.6,0007.38,0010.97,0007.17
2024-04-21 07:37:00,SystemResetWarning,0837.6,5.01,000.00,019.2,018.6,000.0,027.7,021.0,023.3,0000.4,0007.35,0010.96,0007.13
2024-04-21 07:38:00,SystemResetWarning,0837.6,5.00,000.00,019.2,018.7,000.0,027.7,021.0,023.3,0000.2,0007.33,0010.96,0007.12
2024-04-21 07:39:00,SystemResetWarning,0837.5,5.00,000.00,019.2,018.7,000.0,027.7,021.0,023.3,0000.2,0007.32,0010.46,0007.12
2024-04-21 07:40:00,SystemResetWarning,0837.5,4.99,000.00,019.2,018.7,000.0,027.7,021.0,023.2,0000.3,0007.27,0009.14,0007.11
2024-04-21 07:41:00,SystemResetWarning,0837.5,4.99,000.00,019.2,018.7,000.0,027.7,021.0,023.2,0000.3,0007.29,0009.19,0007.12
2024-04-21 07:42:00,SystemResetWarning,0837.5,5.00,000.00,019.2,018.7,000.0,027.7,021.0,023.2,0000.3,0007.31,0009.24,0007.13
2024-04-21 07:43:00,SystemResetWarning,0837.5,5.00,000.00,019.2,018.7,000.0,027.7,021.0,023.1,-000.1,0007.29,0009.19,0007.13
2024-04-21 07:44:00,SystemResetWarning,0837.5,5.01,000.00,019.2,018.7,000.0,027.7,021.0,023.1,-000.2,0007.29,0009.19,0007.12
2024-04-21 07:45:00,SystemResetWarning,0837.5,5.01,000.00,019.2,018.7,000.0,027.7,021.0,023.1,-000.1,0007.30,0009.18,0007.13
2024-04-21 07:46:00,SystemResetWarning,0837.4,5.00,000.00,019.2,018.7,000.0,027.7,021.0,023.1,-000.3,0007.32,0009.22,0007.15
2024-04-21 07:47:00,SystemResetWarning,0837.5,5.00,000.00,019.2,018.7,000.0,027.7,021.0,023.1,-000.5,0007.33,0009.25,0007.17
2024-04-21 07:48:00,SystemResetWarning,0837.5,5.00,000.00,019.2,018.7,000.0,027.7,021.0,023.1,-000.5,0007.35,0009.28,0007.18
2024-04-21 07:49:00,SystemResetWarning,0837.5,5.00,000.00,019.2,018.7,000.0,027.7,021.0,023.1,-000.3,0007.38,0009.32,0007.21
2024-04-21 07:50:00,SystemResetWarning,0837.4,5.00,000.00,019.2,018.7,000.0,027.7,021.0,023.1,-000.2,0007.39,0009.27,0007.22
2024-04-21 07:51:00,SystemResetWarning,0837.4,4.99,000.00,019.2,018.7,000.0,027.7,021.0,023.1,-000.1,0007.39,0009.27,0007.24
2024-04-21 07:52:00,SystemResetWarning,0837.4,5.00,000.00,019.2,018.7,000.0,027.7,021.0,023.1,-000.1,0007.40,0009.29,0007.25
2024-04-21 07:53:00,SystemResetWarning,0837.4,5.00,000.00,019.2,018.7,000.0,027.7,021.0,023.1,-000.2,0007.40,0009.28,0007.26
2024-04-21 07:54:00,SystemResetWarning,0837.4,5.00,000.00,019.2,018.7,000.0,027.7,021.0,023.1,0000.0,0007.43,0009.34,0007.27
2024-04-21 07:55:00,SystemResetWarning,0837.4,5.00,000.00,019.2,018.7,000.0,027.7,021.0,023.1,0000.0,0007.44,0009.39,0007.28
2024-04-21 07:56:00,SystemResetWarning,0837.4,5.00,000.00,019.2,018.7,000.0,027.7,021.0,023.1,0000.0,0007.43,0009.41,0007.28
2024-04-21 07:57:00,SystemResetWarning,0837.4,5.01,000.00,019.2,018.7,000.0,027.7,021.0,023.2,0000.3,0007.42,0009.42,0007.27
2024-04-21 07:58:00,SystemResetWarning,0837.4,5.01,000.00,019.2,018.7,000.0,027.7,021.0,023.2,0000.3,0007.42,0009.41,0007.26
2024-04-21 07:59:00,SystemResetWarning,0837.4,5.00,000.00,019.2,018.7,000.0,027.7,021.0,023.3,0000.5,0007.38,0009.34,0007.23
